Погода в Новой Джегуте

Россия / Карачаево-Черкесская Республика     44°00′35″N   42°02′11″E
темп.,
°C
ветер,
м/с
пор.,
м/с
влажн.,
%
обл.,
%
осадки,
мм/ч
давл.,
гПа
погр.,
м
8 марта, пн
пн800:00−8ю118427 0.0 102321
03:00−9в118614 0.0 102222
06:00−9вюв228881 0.0 102228
09:00−6всв117549 0.0 1020183
12:00−3ссв227868 0.0 1019508
15:00−2ссв227682 0.0 1017531
18:00−4с2287100 0.0 101848
21:00−5в1195100 0.1 101934
9 марта, вт
вт900:00−6юв129195 0.1 101935
03:00−7ююв228173 0.1 101927
06:00−7ю2277100 0.0 101825
09:00−3ююз126577 0.0 1018145
12:00−1с126631 0.0 1017562
15:000с226623 0.0 1017891
18:00−3ссз1198100 0.4 101981
21:00−3ссз1297100 2.5 1022217
10 марта, ср
ср1000:00−4юв0197100 1.0 102295
03:00−6зюз0193100 2.1 1023106
06:00−7в119399 0.3 102435
09:00−6всв118699 0.4 1024231
12:00−4ссв338985 0.0 1022445
15:00−3ссв338792 0.1 1020490
18:00−5св2395100 0.1 1020159
21:00−5всв2396100 0.1 1020230
11 марта, чт
чт1100:00−5всв2296100 0.4 1018162
03:00−5св2396100 1.9 1017167
06:00−6всв3495100 0.9 1016277
09:00−6всв3494100 2.1 1017398
12:00−6всв71092100 1.7 1016705
15:00−7всв91392100 3.1 1018776
18:00−10всв81393100 1.8 1020708
21:00−11всв3695100 2.7 1022404
12 марта, пт
пт1200:00−12всв2396100 0.6 1023218
03:00−13в1295100 0.9 102429
06:00−16юв118738 0.0 102620
09:00−11св118119 0.0 1027141
12:00−8ссв22830 0.0 1025323
15:00−6ссв21840 0.0 1025322
18:00−10св119540 0.0 102621
21:00−9ю337352 0.0 102827